Вернуться в каталог

ONEWEB-0624

АктивенСвязьPO
NORAD 55165·PAYLOAD·🇬🇧 United Kingdom

Запущен Jan 10, 2023 с Cape Canaveral Space Force Station

Loading…

Ближайшие Пролёты (ближайшие 24 часа)

TLE

СвежийSource: CelesTrak SupGP

Эпоха: Sep 14, 2026, 15:59 UTC

1 55165C 23004AB  26257.66646245  .00003515  00000+0  97135-2 0  2579
2 55165  87.8985 332.8057 0001869 106.0370 264.7958 13.12928933    11

Отслеживайте ONEWEB-0624 в реальном времени с AllMySat

Download on the App Store